Location: Düngen
(52.0952°N, 10.0219°E)
Time: 15:41:45
(UTC+00:00)

Cosmos 468 Rocket - Pass Details

Date: 11 March 2026
Orbit: 739 x 775 km, 74.0° (Epoch: 14 April)

Event Time Altitude Azimuth Distance (km) Brightness Sun altitude
Rises 19:18:15 0° 335° (NNW) 3,252 7.9 -19.1°
Reaches altitude 10° 19:20:40 10° 338° (NNW) 2,325 7.1 -19.4°
Maximum altitude 19:25:56 68° 62° (ENE) 835 4.0 -20.2°
Enters shadow 19:27:42 41° 131° (SE) 1,109 4.3 -20.5°
